Hors Challenge

Les Sentiers Du Laerbeek - Ganshoren (10.00 km)

dimanche 16 juin 2019

Vous pouvez trouver Le classement original sur : www.joggans.be
 
LES SENTIERS DU LAERBEEK - GANSHOREN
DISTANCE : 10.00 km
dimanche 16 juin 2019
 
Place dos NOM Catégorie Pl/cat temps temps/km Vitesse
01:00:00              
1 496 NIELS SLACHMUYLDERS HOMME 1 00:34:00 03:24 17.65
2 991 ABDESSAMAD ASRI HOMME 2 00:34:07 03:25 17.59
3 718 FRANÇOIS DUPONT HOMME 3 00:34:47 03:29 17.25
4 763 TIM DE RIDDER HOMME 4 00:35:13 03:31 17.04
5 961 MOHAMED BOUGHRAD HOMME 5 00:35:44 03:34 16.79
6 580 CORENTIN MINNE HOMME 6 00:35:50 03:35 16.74
7 937 THOMAS DEMUYSER HOMME 7 00:35:57 03:36 16.69
8 1 THIBAULT LELIÈVRE HOMME 8 00:36:36 03:40 16.39
9 955 GLEN BRAEM HOMME 9 00:36:57 03:42 16.24
10 721 WILLIAM DOS SANTOS HOMME 10 00:37:00 03:42 16.22
11 536 YVAN POORTMAN HOMME 11 00:37:02 03:42 16.20
12 894 DAVID CIUBERTI HOMME 12 00:37:36 03:46 15.96
13 571 GILLES NANIWE HOMME 13 00:37:37 03:46 15.95
14 706 SAMUEL FERNANDES HOMME 14 00:37:38 03:46 15.94
15 968 PATRICK BOLAND HOMME 15 00:37:40 03:46 15.93
16 655 DAVID JACOPS HOMME 16 00:37:56 03:48 15.82
17 938 DENYS GOBERT HOMME 17 00:38:12 03:49 15.71
18 437 NUNO SANTOS HOMME 18 00:38:31 03:51 15.58
19 565 MOHAMMED NOUAMANI HOMME 19 00:38:33 03:51 15.56
20 905 MATHIAS BAIJOT HOMME 20 00:38:36 03:52 15.54
21 566 IMED NJEMA HOMME 21 00:38:41 03:52 15.51
22 555 MARCO PAIRONA HOMME 22 00:38:42 03:52 15.50
23 633 MIKE LECLOUX HOMME 23 00:38:52 03:53 15.44
24 673 GÉRALD HANSEN HOMME 24 00:38:56 03:54 15.41
25 886 DORIAN MEINGUET HOMME 25 00:39:05 03:55 15.35
26 948 CAROLINE PAPI DAME 1 00:39:10 03:55 15.32
27 531 YANNICK PRIGENT HOMME 26 00:39:36 03:58 15.15
28 853 CILLIAN BUCKLEY HOMME 27 00:39:46 03:59 15.09
29 243 SEBASTIEN BAYENS HOMME 28 00:39:58 04:00 15.01
30 732 TIMOTHÉE DESCHUYTENEER HOMME 29 00:39:59 04:00 15.01
31 435 BERTRANO VIAL HOMME 30 00:40:11 04:01 14.93
32 583 HAMICH MHAMED HOMME 31 00:40:23 04:02 14.86
33 485 FRANÇOIS STOCKMANS HOMME 32 00:40:30 04:03 14.81
34 717 CÉDRIC DURIE HOMME 33 00:40:37 04:04 14.77
35 941 GERT GIELEN HOMME 34 00:40:43 04:04 14.74
36 828 ALAIN CRESPINET HOMME 35 00:40:46 04:05 14.72
37 772 BENJAMIN DE GREEF HOMME 36 00:40:48 04:05 14.71
38 722 THOMAS DISSAUX HOMME 37 00:40:49 04:05 14.70
39 759 JOHN DE WAGTER HOMME 38 00:40:56 04:06 14.66
40 677 JESPER HAGLUND HOMME 39 00:41:03 04:06 14.62
41 447 PHILIPPE DORVAL HOMME 40 00:41:09 04:07 14.58
42 940 PATRICK SCHOONEJANS HOMME 41 00:41:14 04:07 14.55
43 726 ALAIN DEWOLF HOMME 42 00:41:18 04:08 14.53
44 657 TAHAR IAZZAG HOMME 43 00:41:23 04:08 14.50
45 258 JONATHAN WIEME HOMME 44 00:41:34 04:09 14.43
46 644 MICHAL KOPYCZOK HOMME 45 00:41:36 04:10 14.42
47 907 DOMINIQUE MARECHAL HOMME 46 00:41:39 04:10 14.41
48 458 NEJIB MURAD HOMME 47 00:41:52 04:11 14.33
49 844 DONATELLO CARTELLA HOMME 48 00:41:54 04:11 14.32
50 857 VINCENT VASTEMANS HOMME 49 00:41:57 04:12 14.30
51 294 THIERRY VAN OSSELT HOMME 50 00:41:58 04:12 14.30
52 505 NOEL SALAZAR HOMME 51 00:42:00 04:12 14.29
53 964 NICOLAS BOMBLED HOMME 52 00:42:03 04:12 14.27
54 939 MIHAI BAJA HOMME 53 00:42:05 04:13 14.26
55 867 GAETAN MARSIN HOMME 54 00:42:09 04:13 14.23
56 973 MAXIME BILTRESSE HOMME 55 00:42:22 04:14 14.16
57 249 MAARTEN LENAERTS HOMME 56 00:42:25 04:15 14.15
58 611 SÉBASTIEN LOMBAERT HOMME 57 00:42:29 04:15 14.12
59 724 ARNAUD DHOINE HOMME 58 00:42:41 04:16 14.06
60 742 PATRICK DELMELLE HOMME 59 00:42:42 04:16 14.05
61 619 SÉBASTIEN LEVAQUE HOMME 60 00:42:44 04:16 14.04
62 841 DAPHNÉ CAWET DAME 2 00:42:44 04:16 14.04
63 926 OLIVIER DELNEUFCOURT HOMME 61 00:42:47 04:17 14.02
64 443 PAUL BARBIEUX HOMME 62 00:42:55 04:17 13.98
65 870 PASCAL HEYVAERT HOMME 63 00:43:02 04:18 13.94
66 530 NICOLAS PUTZEYS HOMME 64 00:43:10 04:19 13.90
67 550 GEOFFREY PAUWELS HOMME 65 00:43:15 04:20 13.87
68 650 VINCENT JUVYNS HOMME 66 00:43:21 04:20 13.84
69 579 ALAIN MIOT HOMME 67 00:43:22 04:20 13.84
70 279 JAMIE VERELST HOMME 68 00:43:23 04:20 13.83
71 454 ENDA KELLY HOMME 69 00:43:26 04:21 13.81
72 661 GABRIEL HOQUET HOMME 70 00:43:29 04:21 13.80
73 727 CLÉMENT DEWARICHET HOMME 71 00:43:42 04:22 13.73
74 915 KRISTOF DEBLOCK HOMME 72 00:43:44 04:22 13.72
75 525 TIM RANS HOMME 73 00:43:53 04:23 13.67
76 942 ROBBY GOEDEFROY HOMME 74 00:44:02 04:24 13.63
77 466 OLIVIER LAIR HOMME 75 00:44:06 04:25 13.61
78 553 SAMUEL PALMERS HOMME 76 00:44:08 04:25 13.60
79 519 GABRIEL REYNTENS HOMME 77 00:44:12 04:25 13.57
80 508 BRUNO ROUFOSSE HOMME 78 00:44:14 04:25 13.56
81 238 GUY VERSTUYF HOMME 79 00:44:17 04:26 13.55
82 971 SYLVAIN BINET HOMME 80 00:44:23 04:26 13.52
83 440 OLIVIER DE GRAVE HOMME 81 00:44:29 04:27 13.49
84 766 BENOIT DE MUELENAERE HOMME 82 00:44:34 04:27 13.46
85 980 SAID BEN SEDDIK HOMME 83 00:44:35 04:28 13.46
86 559 PABLO ONA HOMME 84 00:44:37 04:28 13.45
87 532 THOMAS PREUVOT HOMME 85 00:44:42 04:28 13.42
88 306 RENAUD VAN DER STRATEN HOMME 86 00:44:43 04:28 13.42
89 750 MATHIEU DELARGE HOMME 87 00:44:45 04:29 13.41
90 924 YANNICK SAMPEDRO HOMME 88 00:44:50 04:29 13.38
91 975 STEFANO BICCAI HOMME 89 00:44:51 04:29 13.38
92 925 JEAN FRANCOIS LEMAIRE HOMME 90 00:44:53 04:29 13.37
93 944 MIKE NIEGHO HOMME 91 00:44:56 04:30 13.35
94 686 TOMA GOCHET HOMME 92 00:44:57 04:30 13.35
95 578 ALAIN MOËS HOMME 93 00:45:00 04:30 13.33
96 493 KRISTEL SOYSAL DAME 3 00:45:00 04:30 13.33
97 654 FRANÇOIS JADOUL HOMME 94 00:45:01 04:30 13.33
98 691 ALAIN GERARD HOMME 95 00:45:02 04:30 13.32
99 1000 ANDRÉ AFONSO DA CRUZ GARCIA HOMME 96 00:45:05 04:30 13.31
100 910 BENOIT DEKONINCK HOMME 97 00:45:08 04:31 13.29
101 254 DRIES CUYVERS HOMME 98 00:45:13 04:31 13.27
102 762 SARAH DE SMET DAME 4 00:45:16 04:32 13.25
103 444 MARC BINKERT HOMME 99 00:45:22 04:32 13.23
104 586 JORDAN MÉLON HOMME 100 00:45:31 04:33 13.18
105 649 BOB KABEYA HOMME 101 00:45:35 04:34 13.16
106 264 VLADAN VUJAKLIJA HOMME 102 00:45:38 04:34 13.15
107 986 FRÉDÉRIC BARRE HOMME 103 00:45:44 04:34 13.12
108 909 FELIX TORRES MIRALLES HOMME 104 00:45:46 04:35 13.11
109 883 FABIAN PETITJEAN HOMME 105 00:45:48 04:35 13.10
110 699 STEPHANE FOURDIN HOMME 106 00:45:49 04:35 13.10
111 876 ADRIEN BUNTINX HOMME 107 00:45:53 04:35 13.08
112 459 ABDELMAJID BENABBES HOMME 108 00:46:17 04:38 12.96
113 850 FILIP BURGELMAN HOMME 109 00:46:25 04:39 12.93
114 945 CHRISTOPHE PAUWELS HOMME 110 00:46:37 04:40 12.87
115 512 ALAIN ROHNER HOMME 111 00:46:40 04:40 12.86
116 290 LUKAS VANACKER HOMME 112 0:46:45 04:41 12.83
117 916 EVA DEVLIEGHER DAME 5 0:46:46 04:41 12.83
118 685 FRANÇOIS GOOR HOMME 113 0:46:48 04:41 12.82
119 700 ADRIEN FOUCART HOMME 114 0:46:51 04:41 12.81
120 628 FRANÇOIS LEGROS HOMME 115 0:46:53 04:41 12.80
121 754 CHRISTOPHE DEGREZ HOMME 116 0:46:54 04:41 12.79
122 277 KEVIN VERHOEVEN HOMME 117 0:46:56 04:42 12.78
123 439 ANNE JOLY VAUDOISEY DAME 6 0:46:58 04:42 12.78
124 599 PEDRO MALAQUIAS HOMME 118 0:47:02 04:42 12.76
125 280 JOHNY VENDRIX HOMME 119 0:47:03 04:42 12.75
126 959 ALAIN BOURDON HOMME 120 0:47:06 04:43 12.74
127 299 GABRIEL VAN HOUTTE HOMME 121 0:47:06 04:43 12.74
128 433 VICTOR PING RAMOS HOMME 122 0:47:07 04:43 12.73
129 618 JOËL LEVASSEUR HOMME 123 0:47:08 04:43 12.73
130 953 BENOIT BRECKPOT HOMME 124 0:47:15 04:44 12.70
131 689 ALAIN GILLAIN HOMME 125 0:47:20 04:44 12.68
132 866 THOMAS BURGESS HOMME 126 0:47:20 04:44 12.68
133 288 GAËTAN VANDEPLAS HOMME 127 0:47:24 04:44 12.66
134 648 SEBASTIEN KAERSOEL HOMME 128 0:47:26 04:45 12.65
135 549 SHANON PECHÉ DAME 7 0:47:27 04:45 12.64
136 551 ARNAUD PARMENTIER HOMME 129 0:47:28 04:45 12.64
137 537 MATHÉO POORTMAN HOMME 130 0:47:31 04:45 12.63
138 987 THOMAS BARIDEAU HOMME 131 0:47:42 04:46 12.58
139 605 KOEN MAES HOMME 132 0:47:43 04:46 12.57
140 929 KHALIFA GALFOUT HOMME 133 0:47:51 04:47 12.54
141 604 MARTIN MAES HOMME 134 0:47:53 04:47 12.53
142 451 MARC STALMANS HOMME 135 0:47:55 04:47 12.52
143 863 JENNA PROTHERS DAME 8 0:47:57 04:48 12.51
144 278 XAVIER VERHAEGHE HOMME 136 0:47:59 04:48 12.50
145 983 SÉBASTIEN BATTEUR HOMME 137 0:48:02 04:48 12.49
146 760 TOM DE TOLLENAERE HOMME 138 0:48:09 04:49 12.46
147 960 SERGE BOULANGER HOMME 139 0:48:11 04:49 12.45
148 898 FREDERIC GLORIEUX HOMME 140 0:48:14 04:49 12.44
149 516 MIMO RIFELJ HOMME 141 0:48:20 04:50 12.41
150 903 KARIM MOURTADA HOMME 142 0:48:22 04:50 12.41
151 260 BIRGIT WECKERLE DAME 9 0:48:22 04:50 12.41
152 465 RONNY HERZEEL HOMME 143 0:48:30 04:51 12.37
153 862 JOE DECLERCQ HOMME 144 0:48:37 04:52 12.34
154 450 SIMON MORAL MOLDES HOMME 145 0:48:43 04:52 12.32
155 995 RAFIKA AMRANI DAME 10 0:48:47 04:53 12.30
156 985 PHILIPPE BASTIEN HOMME 146 0:48:49 04:53 12.29
157 820 NICOLA DAVENPORT DAME 11 0:48:50 04:53 12.29
158 612 YVES LOBERT HOMME 147 0:48:51 04:53 12.28
159 923 ETIENNE MOTTE HOMME 148 0:48:55 04:54 12.27
160 889 MOHAMED OULD HAJ HOMME 149 0:48:57 04:54 12.26
161 731 THOMAS DEVARREWAERE HOMME 150 0:49:00 04:54 12.24
162 817 OLIVIER DE BOCK HOMME 151 0:49:03 04:54 12.23
163 741 YVES DELVAUX HOMME 152 0:49:04 04:54 12.23
164 491 LOUIS PHILIPPE HOMME 153 0:49:06 04:55 12.22
165 900 HOUMAD LATRACHE HOMME 154 0:49:10 04:55 12.20
166 585 MARIO MEULEMANS HOMME 155 0:49:10 04:55 12.20
167 990 ROBERTO ATIENZA HOMME 156 0:49:14 04:55 12.19
168 712 HAKIM EL MALLAH HOMME 157 0:49:19 04:56 12.17
169 317 GUY VAERMAN HOMME 158 0:49:23 04:56 12.15
170 641 BRUNO LAENENS HOMME 159 0:49:27 04:57 12.13
171 324 ERIC THIELEMANS HOMME 160 0:49:29 04:57 12.13
172 581 ROBERT MICHEL HOMME 161 0:49:30 04:57 12.12
173 895 OLIVIER VANDENEDE HOMME 162 0:49:31 04:57 12.12
174 255 AMINE ADJOURI HOMME 163 0:49:35 04:58 12.10
175 873 MARIO KOYAMA HOMME 164 0:49:39 04:58 12.08
176 745 NATHAN DELERIS HOMME 165 0:49:42 04:58 12.07
177 305 GEOFFROY VAN DESSEL HOMME 166 0:49:52 04:59 12.03
178 950 VALENTIN QUINTAS HOMME 167 0:49:52 04:59 12.03
179 626 LINDSEY LENAERTS DAME 12 0:49:57 05:00 12.01
180 256 XAVIER-JEAN ZECH HOMME 168 0:50:01 05:00 12.00
181 515 PAUL ROBERT HOMME 169 0:50:02 05:00 11.99
182 823 CHRISTOPHE DACIER HOMME 170 0:50:04 05:00 11.98
183 595 DAVID MARECHAL HOMME 171 0:50:05 05:00 11.98
184 999 MIGUEL AFONSO DA CRUZ GARCIA HOMME 172 0:50:13 05:01 11.95
185 746 ISABELLE DELERIS DAME 13 0:50:18 05:02 11.93
186 989 ALEXANDRE AUQUIER HOMME 173 0:50:24 05:02 11.90
187 452 JESSICA VANDERWEYEN DAME 14 0:50:27 05:03 11.89
188 463 JAVIER SUAREZ MIER HOMME 174 0:50:30 05:03 11.88
189 638 MOHAMED LYAMINE LAROUG HOMME 175 0:50:34 05:03 11.87
190 858 PIERRE SLADDEN HOMME 176 0:50:37 05:04 11.85
191 753 NICOLAAS DEGROOTE HOMME 177 0:50:44 05:04 11.83
192 308 HENRI VAN DEN BUSSCHE HOMME 178 0:50:49 05:05 11.81
193 272 LUC VERRIEST HOMME 179 0:50:50 05:05 11.80
194 846 VINCENZA CAPIZZI DAME 15 0:50:55 05:06 11.78
195 557 MARIE OVERTUS DAME 16 0:50:56 05:06 11.78
196 453 PATRICK VANDERWEYEN HOMME 180 0:51:04 05:06 11.75
197 467 LAURENT DERY HOMME 181 0:51:06 05:07 11.74
198 494 MONIA SOLHI DAME 17 0:51:16 05:08 11.70
199 928 KOSSIVI DEGBE HOMME 182 0:51:19 05:08 11.69
200 758 GRÉGOIRE DE WALQUE HOMME 183 0:51:21 05:08 11.68
201 859 VIRGINIE JACOBS DAME 18 0:51:24 05:08 11.67
202 596 ETIENNE MARCHAND HOMME 184 0:51:26 05:09 11.67
203 680 CÉCILE GUILLARD DAME 19 0:51:28 05:09 11.66
204 882 PINO GIORDANO HOMME 185 0:51:31 05:09 11.65
205 963 KOEN BONTE HOMME 186 0:51:33 05:09 11.64
206 627 JEAN-LUC LEMPEREUR HOMME 187 0:51:34 05:09 11.64
207 917 CLAUDIO MARIOTTI HOMME 188 0:51:35 05:10 11.63
208 982 JOERI BEERNAERT HOMME 189 0:51:37 05:10 11.62
209 524 PIERRE REBUFFAT HOMME 190 0:51:38 05:10 11.62
210 752 GAETAN DEHAESELEER HOMME 191 0:51:49 05:11 11.58
211 293 FRANÇOISE VAN POELVOORDE DAME 20 0:51:54 05:11 11.56
212 539 OLIVIER POELS HOMME 192 0:51:57 05:12 11.55
213 899 VINCENT PÂQUES HOMME 193 0:51:57 05:12 11.55
214 855 LÉO BRUNET HOMME 194 0:51:59 05:12 11.54
215 501 NIENKE SCHUTTE DAME 21 0:52:01 05:12 11.53
216 912 WAFAE EDDAK DAME 22 0:52:02 05:12 11.53
217 888 SOPHIE ROELANDTS DAME 23 0:52:05 05:13 11.52
218 771 DANIËL DE HERTOG HOMME 195 0:52:10 05:13 11.50
219 775 TOM DE CLERCQ HOMME 196 0:52:12 05:13 11.49
220 273 FRANCESCO VERONA HOMME 197 0:52:14 05:13 11.49
221 773 JULIEN DE GRAVE HOMME 198 0:52:15 05:14 11.48
222 837 QUENTIN COEURDEROI HOMME 199 0:52:18 05:14 11.47
223 906 ERIC COLSON HOMME 200 0:52:20 05:14 11.46
224 658 MIKE HUYGENS HOMME 201 0:52:23 05:14 11.45
225 744 JOOST DELEYE HOMME 202 0:52:25 05:15 11.45
226 832 SOPHIE CORNELIS DAME 24 0:52:25 05:15 11.45
227 609 THOMAS LOUIS HOMME 203 0:52:27 05:15 11.44
228 312 LOU VAN DE VELDE DAME 25 0:52:27 05:15 11.44
229 253 BENOÎT DEMEESTER HOMME 204 0:52:31 05:15 11.42
230 765 SAMUEL DE NEEF HOMME 205 0:52:32 05:15 11.42
231 558 AMANDINE ONDEL DAME 26 0:52:42 05:16 11.39
232 248 FRÉDÉRIC RAYNAUD HOMME 206 0:52:42 05:16 11.39
233 974 LUC BIDAINE HOMME 207 0:52:49 05:17 11.36
234 295 ALEX VAN NOPPEN HOMME 208 0:52:54 05:17 11.34
235 315 AURELIE VAN ASBROECK DAME 27 0:52:56 05:18 11.34
236 621 JONATHAN LETTANY HOMME 209 0:52:58 05:18 11.33
237 931 FLORIAN LEBRUN HOMME 210 0:53:01 05:18 11.32
238 603 PIETERJAN MAES HOMME 211 0:53:03 05:18 11.31
239 908 ZIGGY FIERENS HOMME 212 0:53:06 05:19 11.30
240 334 PETER TAEYE HOMME 213 0:53:08 05:19 11.29
241 719 EMMANUEL DUEZ HOMME 214 0:53:11 05:19 11.28
242 593 LUIGI MARRO HOMME 215 0:53:12 05:19 11.28
243 868 EDDY MAHIGU HOMME 216 0:53:20 05:20 11.25
244 994 CAPUCINE ANBERGEN DAME 28 0:53:22 05:20 11.24
245 834 EVA COOLS DAME 29 0:53:25 05:20 11.23
246 662 XAVIER HOOREMAN HOMME 217 0:53:27 05:21 11.23
247 949 GEOFFREY CARTEREAU HOMME 218 0:53:29 05:21 11.22
248 997 SERGE AMAND HOMME 219 0:53:35 05:22 11.20
249 269 MARC VLOEBERGH HOMME 220 0:53:36 05:22 11.19
250 947 YOUNES BELHOUARI HOMME 221 0:53:44 05:22 11.17
251 918 FATIMA MEHSSATOU DAME 30 0:53:49 05:23 11.15
252 438 MAGDALENA LISKOVA DAME 31 0:53:54 05:23 11.13
253 735 MRIC DERUME HOMME 222 0:53:55 05:23 11.13
254 697 MARIE FRANCARD HOMME 223 0:53:59 05:24 11.11
255 517 YANNICK RICARD HOMME 224 0:54:12 05:25 11.07
256 869 VINCENZO BACCARO HOMME 225 0:54:17 05:26 11.05
257 902 FRANK TIERENS HOMME 226 0:54:19 05:26 11.05
258 251 ROGER KALENGA-MPALA HOMME 227 0:54:22 05:26 11.04
259 885 DAVID BRUYNDONCKX HOMME 228 0:54:24 05:26 11.03
260 822 FLORIAN DARIS HOMME 229 0:54:24 05:26 11.03
261 540 PEDRO PIRES DA CRUZ HOMME 230 0:54:25 05:27 11.03
262 919 LAURE DELBECQUI DAME 32 0:54:26 05:27 11.02
263 874 DIDIER VANDEKERKHOVEN HOMME 231 0:54:28 05:27 11.02
264 642 SANDRINE LACKNER DAME 33 0:54:30 05:27 11.01
265 751 THOMAS DEHOUX HOMME 232 0:54:36 05:28 10.99
266 704 CLAIRE FLÜRY-HERARD DAME 34 0:54:36 05:28 10.99
267 464 ALIA BARDHIL HOMME 233 0:54:36 05:28 10.99
268 582 ARIANE MICHEL DAME 35 0:54:41 05:28 10.97
269 590 MICHEL MATAGNE HOMME 234 0:54:42 05:28 10.97
270 819 MAXIME DAYER HOMME 235 0:54:49 05:29 10.95
271 436 AXELLE GRIFFON DAME 36 0:55:02 05:30 10.90
272 996 JAMAL AMRANI HOMME 236 0:55:04 05:30 10.90
273 667 EMMANUEL HERTENS HOMME 237 0:55:08 05:31 10.88
274 257 STANISLAS ZALESKI HOMME 238 0:55:09 05:31 10.88
275 313 TIM VAN DE VELDE HOMME 239 0:55:11 05:31 10.87
276 575 JULIETTE MOREAU DAME 37 0:55:15 05:31 10.86
277 640 KEVIN LAMONT HOMME 240 0:55:24 05:32 10.83
278 620 LOUISIANE LEVAQUE DAME 38 0:55:32 05:33 10.80
279 659 CLÉMENCE HULPIAU DAME 39 0:55:34 05:33 10.80
280 506 EMILLIE RUCKEBUSCH DAME 40 0:55:37 05:34 10.79
281 562 MÉLANIE NOYAL DAME 41 0:55:37 05:34 10.79
282 509 PATRICK ROMBOUT HOMME 241 0:55:40 05:34 10.78
283 510 FIONA ROMBOUT DAME 42 0:55:40 05:34 10.78
284 838 MARC CLAEYS HOMME 242 0:55:41 05:34 10.78
285 768 JEAN-MARC DE LOOF HOMME 243 0:55:47 05:35 10.76
286 615 TANJA LINTHOUDT DAME 43 0:55:52 05:35 10.74
287 707 CHRISTIAN FAURE HOMME 244 0:55:59 05:36 10.72
288 268 BÉNÉDICTE VOS DAME 44 0:56:01 05:36 10.71
289 483 OLIVIER STOCMAN HOMME 245 0:56:02 05:36 10.71
290 511 MARGARETH ROMANOWSKA DAME 45 0:56:02 05:36 10.71
291 831 FERNANDO CORREIA HOMME 246 0:56:04 05:36 10.70
292 864 OLIVIER DEBEIR HOMME 247 0:56:05 05:36 10.70
293 749 CLÉO DELATTRE DAME 46 0:56:09 05:37 10.69
294 690 ALEXIS GHEYSENS HOMME 248 0:56:09 05:37 10.69
295 825 FRANÇOIS CROONENBERGHS HOMME 249 0:56:17 05:38 10.66
296 326 AUDE THEUNISSEN DAME 47 0:56:21 05:38 10.65
297 826 SOPHIE CROISET DAME 48 0:56:24 05:38 10.64
298 263 LAURENT WANT HOMME 250 0:56:25 05:39 10.64
299 821 PATRICK DARIS HOMME 251 0:56:28 05:39 10.63
300 652 PHILIPPE JEAN HOMME 252 0:56:29 05:39 10.62
301 645 DONAL KENNEDY HOMME 253 0:56:30 05:39 10.62
302 281 FAKUN VEEKASH HOMME 254 0:56:32 05:39 10.61
303 824 EMMANUELLE CUGNON DAME 49 0:56:43 05:40 10.58
304 449 MANUEL MORAL HOMME 255 0:56:51 05:41 10.55
305 261 ELISABETH WAUTIER DAME 50 0:56:59 05:42 10.53
306 879 VIRGINIE LELOUP DAME 51 0:57:19 05:44 10.47
307 333 HAZNI TALAY HOMME 256 0:57:24 05:44 10.45
308 543 CHRISTOPHE PINS HOMME 257 0:57:27 05:45 10.44
309 259 PASCAL WELSCH HOMME 258 0:57:39 05:46 10.41
310 887 ANNE DEBRUYNE DAME 52 0:57:42 05:46 10.40
311 635 ALEXANDRA LAZAR DAME 53 0:57:42 05:46 10.40
312 747 VINCENT DELÉHOUZÉE HOMME 259 0:57:44 05:46 10.39
313 694 CAROLINE GAMBA DAME 54 0:57:45 05:47 10.39
314 703 LAURA FOERSTER DAME 55 0:57:51 05:47 10.37
315 329 OLIVIER TATON HOMME 260 0:57:51 05:47 10.37
316 682 CHLOE GROSSEN DAME 56 0:57:57 05:48 10.35
317 708 MARGUERITE FARNIER DAME 57 0:58:01 05:48 10.34
318 693 OLIVIER GAUSSET HOMME 261 0:58:02 05:48 10.34
319 244 DRIES VERDOODT HOMME 262 0:58:04 05:48 10.33
320 486 ERIC STIENSMA HOMME 263 0:58:05 05:48 10.33
321 725 ALEXIS DHAEZE HOMME 264 0:58:07 05:49 10.32
322 482 CAROLINE STOQUART DAME 58 0:58:08 05:49 10.32
323 535 OLIVIER POUQUET HOMME 265 0:58:09 05:49 10.32
324 547 FRANÇOISE PETIT DAME 59 0:58:24 05:50 10.27
325 932 RICHARD MOULI HOMME 266 0:58:28 05:51 10.26
326 247 LOUISA GUYLIER DAME 60 0:58:30 05:51 10.26
327 441 YANNICK DE GRAEVE HOMME 267 0:58:33 05:51 10.25
328 518 KAREN RICARD DAME 61 0:58:36 05:52 10.24
329 602 OLIVIER MAHIEU HOMME 268 0:58:36 05:52 10.24
330 830 RACHEL COUDRAY DAME 62 0:58:37 05:52 10.24
331 554 SÉBASTIEN PALMANS HOMME 269 0:58:38 05:52 10.23
332 878 RENE GOOSSENS HOMME 270 0:58:40 05:52 10.23
333 314 MAX VAN DE VELDE HOMME 271 0:58:43 05:52 10.22
334 730 CÉLIA DEVOS DAME 63 0:58:45 05:53 10.21
335 739 LAURENCE DEMAEGHT DAME 64 0:58:46 05:53 10.21
336 600 PHILIPPE MAKINTOSH HOMME 272 0:58:47 05:53 10.21
337 323 LUDOVIC THIELEMANS HOMME 273 0:58:49 05:53 10.20
338 913 JONATHAN FRONHOFFS HOMME 274 0:58:51 05:53 10.20
339 914 SMILLA FRONHOFFS DAME 65 0:58:52 05:53 10.19
340 538 AURORE PONCIN DAME 66 0:58:56 05:54 10.18
341 740 KATHY DELVOSAL DAME 67 0:58:59 05:54 10.17
342 946 LAURENCE DEBECKER DAME 68 0:58:59 05:54 10.17
343 338 MATTI SUOMILAMMI HOMME 275 0:59:01 05:54 10.17
344 283 SYLVIE VARREWAERE DAME 69 0:59:01 05:54 10.17
345 594 NATHALIE MARIUS DAME 70 0:59:05 05:54 10.16
346 904 FLORENCE MAROT DAME 71 0:59:18 05:56 10.12
347 572 KATI MUSTONEN DAME 72 0:59:20 05:56 10.11
348 567 ISABELLE NICOLAS DAME 73 0:59:26 05:57 10.10
349 632 MICHELE LECOCQ DAME 74 0:59:31 05:57 10.08
350 927 JARI WIJFFELS HOMME 276 0:59:38 05:58 10.06
351 245 YVES VAN DE CASTEELE HOMME 277 0:59:43 05:58 10.05
352 696 DANIEL FULTS HOMME 278 0:59:47 05:59 10.04
353 695 KANDICE FULTS DAME 75 0:59:48 05:59 10.03
354 520 JOHN REYNOLDS HOMME 279 0:59:49 05:59 10.03
355 442 CECILE DELFOSSE DAME 76 0:59:51 05:59 10.03
356 935 FILIP LEEMANS HOMME 280 0:59:56 06:00 10.01
357 507 DOMINIQUE RUCKEBUSCH HOMME 281 0:59:58 06:00 10.01
358 845 MARIA JOÃO CARDOSO DA ROCHA DAME 77 1:00:04 06:00 9.99
359 848 DOMENICO CAMPOGRANDE HOMME 282 1:00:08 06:01 9.98
360 448 PHILIPPE STALMANS HOMME 283 1:00:19 06:02 9.95
361 892 CHRISTOPHE LEEMANS HOMME 284 1:00:23 06:02 9.94
362 764 NICOLAS DE REVIÈRE HOMME 285 1:00:29 06:03 9.92
363 560 DIANA OLAERTS DAME 78 1:00:36 06:04 9.90
364 643 EMMANUEL KYNDT HOMME 286 1:00:36 06:04 9.90
365 737 TRISTAN DEREUX HOMME 287 1:00:42 06:04 9.88
366 815 LÉNA DE BRABANDERE DAME 79 1:00:49 06:05 9.87
367 977 LAURE BERTIMES DAME 80 1:00:50 06:05 9.86
368 301 LUC VAN GOSSUM HOMME 288 1:00:51 06:05 9.86
369 714 LOUISE EISCHORN DAME 81 1:00:53 06:05 9.85
370 679 RAJEEV GURU HOMME 289 1:00:54 06:05 9.85
371 563 MARIE NOYAL DAME 82 1:00:55 06:05 9.85
372 577 SOPHIE MOLLE DAME 83 1:01:01 06:06 9.83
373 622 MARIE LESENFANTS DAME 84 1:01:06 06:07 9.82
374 502 ALAIN SCHAFF HOMME 290 1:01:06 06:07 9.82
375 875 DAMIANO COLASOONNO HOMME 291 1:01:09 06:07 9.81
376 877 ALBINE MAST DAME 85 1:01:16 06:08 9.79
377 755 CLAUDINE DECKERS DAME 86 1:01:21 06:08 9.78
378 860 KRIS VERBURGT HOMME 292 1:01:25 06:08 9.77
379 861 NICOLE VAN DEN ABBEELE DAME 87 1:01:26 06:09 9.77
380 665 BORLOO HILDE DAME 88 1:01:28 06:09 9.76
381 998 INDIRAVUS AKCAY HOMME 293 1:01:29 06:09 9.76
382 774 DENIS DE GRAVE HOMME 294 1:01:31 06:09 9.75
383 738 JONATHAN DENEF HOMME 295 1:01:42 06:10 9.72
384 678 MAGDA GUZOWSKA DAME 89 1:01:48 06:11 9.71
385 631 SOPHIE LECONTE DAME 90 1:01:54 06:11 9.69
386 893 JEROME SPENDERS HOMME 296 1:01:56 06:12 9.69
387 901 ANNE CECILE VANDERBYSE DAME 91 1:01:57 06:12 9.69
388 854 RONY BRUSSEEL HOMME 297 1:02:00 06:12 9.68
389 529 MARCELLA QUADRIO DAME 92 1:02:00 06:12 9.68
390 711 NAÏMA EL MANSSOURI DAME 93 1:02:03 06:12 9.67
391 676 HEKURAN HAJDINAJ HOMME 298 1:02:03 06:12 9.67
392 282 CLAUDIA VASCONCELLOS DAME 94 1:02:12 06:13 9.65
393 576 ALESSIA MONTEIRO DAME 95 1:02:14 06:13 9.64
394 920 JEAN PAUL PHILIPPON HOMME 299 1:02:20 06:14 9.63
395 498 MARINE SERVENT DAME 96 1:02:22 06:14 9.62
396 488 ALINE STAS DAME 97 1:02:29 06:15 9.60
397 930 ERIC PARBEY HOMME 300 1:02:32 06:15 9.59
398 851 OLIVIER BUONTIEMPO HOMME 301 1:02:33 06:15 9.59
399 456 LOUISE SEYFFERT DAME 98 1:02:35 06:15 9.59
400 275 BRECHT VERMOTE HOMME 302 1:02:48 06:17 9.55
401 513 KLARA ROBIN DAME 99 1:02:50 06:17 9.55
402 839 SOPHIE CHARLES DAME 100 1:02:55 06:17 9.54
403 597 MICHÈLE MANSY DAME 101 1:03:02 06:18 9.52
404 587 GWENDOLINE MAUCHER DAME 102 1:03:17 06:20 9.48
405 592 MARIA MARRO DAME 103 1:03:17 06:20 9.48
406 479 FRÉDÉRIC STORME HOMME 303 1:03:19 06:20 9.48
407 970 ANNE-CÉCILE BODART DAME 104 1:03:21 06:20 9.47
408 978 CORALIE BERTHELÉ DAME 105 1:03:25 06:20 9.46
409 503 CARMEN SANCHEZ DAME 106 1:03:28 06:21 9.45
410 298 MURIEL VAN IMPE DAME 107 1:03:40 06:22 9.42
411 943 EVELYN LEWKOWICZ DAME 108 1:03:40 06:22 9.42
412 756 NATHALIE DEBLIRE DAME 109 1:03:55 06:23 9.39
413 289 JESSICA VANDENBOSCH HOMME 304 1:03:57 06:24 9.38
414 296 EDDY VAN NIEUWENHUYZEN HOMME 305 1:03:59 06:24 9.38
415 865 YUN MABILLE DAME 110 1:04:03 06:24 9.37
416 339 EMMI SUOMILAMMI DAME 111 1:04:10 06:25 9.35
417 976 EMMANUELLE BERVAS DAME 112 1:04:19 06:26 9.33
418 608 DIDIER MABIL HOMME 306 1:04:33 06:27 9.30
419 872 IBRAHIM TAMDITI HOMME 307 1:04:33 06:27 9.30
420 698 XAVIER FOURNEAU HOMME 308 1:04:37 06:28 9.29
421 637 MONIKA LAUBACH DAME 113 1:04:40 06:28 9.28
422 297 GARY VAN LIERDE HOMME 309 1:04:43 06:28 9.27
423 856 ANTOINE BRUNET HOMME 310 1:04:48 06:29 9.26
424 843 MARINE CASAGRANDE DAME 114 1:04:56 06:30 9.24
425 884 BART VAN GEEM HOMME 311 1:04:58 06:30 9.24
426 715 FLORENCE DUTOIT DAME 115 1:04:59 06:30 9.23
427 716 ANNE-GAËLLE DUTOIT DAME 116 1:04:59 06:30 9.23
428 936 ELENA VAN AELST DAME 117 1:05:18 06:32 9.19
429 816 ANNE DE BOE DAME 118 1:05:35 06:33 9.15
430 521 BRIAN REYNOLDS HOMME 312 1:05:39 06:34 9.14
431 330 CHARLINE TAMO DAME 119 1:05:46 06:35 9.12
432 584 BERNADETTE MEURISSE DAME 120 1:05:49 06:35 9.12
433 671 ETIENNE HECHT HOMME 313 1:05:52 06:35 9.11
434 734 FRÉDÉRIC DERUYVER HOMME 314 1:05:54 06:35 9.10
435 573 EDWIN MURILLO MERCADO HOMME 315 1:05:55 06:35 9.10
436 630 CATY LEEMAN DAME 121 1:05:55 06:35 9.10
437 967 LOÏS BOLLE HOMME 316 1:06:06 06:37 9.08
438 610 LISE LOPEZ DAME 122 1:06:08 06:37 9.07
439 836 SARAH COLLARD DAME 123 1:06:10 06:37 9.07
440 748 MAUD DELBECQUE DAME 124 1:06:11 06:37 9.07
441 487 JESSICA STEHMANN DAME 125 1:06:12 06:37 9.06
442 564 BÉRENGÈRE NOWAK DAME 126 1:06:12 06:37 9.06
443 455 BART VANLAERE HOMME 317 1:06:14 06:37 9.06
444 250 VALÉRIE LAMBOT DAME 127 1:06:17 06:38 9.05
445 653 CHANTAL JAUNIAUX DAME 128 1:06:26 06:39 9.03
446 922 MIA LOPES DAME 129 1:06:27 06:39 9.03
447 286 VALÉRIE VANOVERSKELDS DAME 130 1:06:28 06:39 9.03
448 897 DAVID MOENECLAEY HOMME 318 1:06:36 06:40 9.01
449 322 FLORENCE THIRY DAME 131 1:06:37 06:40 9.01
450 570 ANDREA NAVARRO RODRIGUEZ DAME 132 1:06:38 06:40 9.00
451 445 MATHIS OUNOUGHI HOMME 319 1:06:47 06:41 8.98
452 767 RUDI DE MOOR HOMME 320 1:06:49 06:41 8.98
453 891 BENOIT HUYSKENS HOMME 321 1:06:49 06:41 8.98
454 446 JULIEN OUNOUGHI HOMME 322 1:06:51 06:41 8.98
455 687 SOPHIE GILSON DAME 133 1:06:58 06:42 8.96
456 271 MOKI SKY VERSCHRAEGEN DAME 134 1:07:01 06:42 8.95
457 890 INGEBORG VANDENBUSSCHE DAME 135 1:07:24 06:44 8.90
458 266 FRANCE VRIJENS DAME 136 1:07:27 06:45 8.90
459 979 SILVIA BERTELLI DAME 137 1:07:28 06:45 8.89
460 265 PIERRE VRIJENS HOMME 323 1:07:29 06:45 8.89
461 284 CINDY VANTHOURNOUT DAME 138 1:07:31 06:45 8.89
462 709 FABIENNE ELLENBECKER DAME 139 1:07:51 06:47 8.84
463 681 OLIVIER GUELTON HOMME 324 1:07:57 06:48 8.83
464 303 NICO VAN DIJCK HOMME 325 1:07:58 06:48 8.83
465 669 PIERRE HENQUET HOMME 326 1:07:59 06:48 8.83
466 304 MAXIM VAN DIJCK HOMME 327 1:08:02 06:48 8.82
467 319 LAURANE URBAIN DAME 140 1:08:10 06:49 8.80
468 500 MICHAEL SEPHIHA HOMME 328 1:08:27 06:51 8.77
469 663 RAPHAËL HOOREMAN HOMME 329 1:08:32 06:51 8.75
470 720 FABRICE DUCHENE HOMME 330 1:08:36 06:52 8.75
471 504 TOMASZ SALMONOWICZ HOMME 331 1:08:38 06:52 8.74
472 847 ROBERTO CANA HOMME 332 1:09:14 06:55 8.67
473 911 JESSY USERSTAM DAME 141 1:09:15 06:56 8.66
474 881 FREDERIC SANDRON HOMME 333 1:09:18 06:56 8.66
475 688 MARIE GILSON DAME 142 1:09:34 06:57 8.62
476 591 MARIE MASSON DAME 143 1:09:55 07:00 8.58
477 668 JEAN MARY HÉRAUT HOMME 334 1:09:58 07:00 8.58
478 613 MARIE-CHRISTINE LISSENS DAME 144 1:10:01 07:00 8.57
479 880 PAOLA AMORE DAME 145 1:10:15 07:01 8.54
480 616 SABINE LIENARD DAME 146 1:10:17 07:02 8.54
481 896 OLIVIER JEUNIAUX HOMME 335 1:11:23 07:08 8.41
482 683 VÉRONIQUE GRISÉ DAME 147 1:11:25 07:09 8.40
483 262 SOLANGE WATERKEYN DAME 148 1:11:27 07:09 8.40
484 287 JOËLLE VANDIJCK DAME 149 1:11:38 07:10 8.38
485 624 LEONARDO LEONARDO HOMME 336 1:11:44 07:10 8.36
486 692 VASSILIS GEORGATOS HOMME 337 1:11:55 07:11 8.34
487 533 MATHILDE POURTOIS DAME 150 1:12:01 07:12 8.33
488 840 MORGANE CEUSTERS DAME 151 1:12:01 07:12 8.33
489 705 FILIPA FERREIRA DE MELO DAME 152 1:12:02 07:12 8.33
490 993 GISELA ANTUNES DAME 153 1:12:04 07:12 8.33
491 934 NADINE VANSTEENKISTE DAME 154 1:12:17 07:14 8.30
492 770 EMILIE DE KERCHOVE DAME 155 1:12:30 07:15 8.28
493 871 KARINE SMETS DAME 156 1:12:55 07:17 8.23
494 921 NATHALIE GUIOT DAME 157 1:13:28 07:21 8.17
495 544 MAÏTÉ PIERRET DAME 158 1:14:16 07:26 8.08
496 829 LAURENCE COULON DAME 159 1:14:22 07:26 8.07
497 545 VALÉRIE PIERARD DAME 160 1:14:24 07:26 8.06
498 460 JEAN DE GREEF HOMME 338 1:14:44 07:28 8.03
499 302 STEPHAN VAN DRIESSCHE HOMME 339 1:14:53 07:29 8.01
500 827 CARMEN CRISTEA DAME 161 1:15:29 07:33 7.95
501 601 ALEXANDRA MAJER DAME 162 1:15:33 07:33 7.94
502 522 JUDITH REYLAND DAME 163 1:15:36 07:34 7.94
503 728 SANDRINE DEVRIESE DAME 164 1:15:42 07:34 7.93
504 984 MARIE-LAURE BATTAILLE DAME 165 1:15:55 07:35 7.90
505 660 ALEXANDRA HOURS DAME 166 1:16:13 07:37 7.87
506 988 THIERRY BALTHAZAR HOMME 340 1:16:14 07:37 7.87
507 556 EMINE OZDEMIR DAME 167 1:16:16 07:38 7.87
508 729 SERGE DEVOS HOMME 341 1:16:24 07:38 7.85
509 542 SAMANTHA PIRARD DAME 168 1:16:25 07:39 7.85
510 981 VÉRONIQUE BEJAER DAME 169 1:17:09 07:43 7.78
511 495 JEAN-MICHEL SNOECK HOMME 342 1:17:45 07:46 7.72
512 321 LAURENT TIHON HOMME 343 1:18:19 07:50 7.66
513 337 MICHKETTE TABBEL DAME 170 1:21:27 08:09 7.37
514 710 FATEN ELKEFFI DAME 171 1:21:28 08:09 7.36
515 713 SAMIRA EL KEFFI DAME 172 1:21:29 08:09 7.36
516 617 MARIANNE LIBAUT DAME 173 1:21:57 08:12 7.32
517 966 LOUANE BOLLE DAME 174 1:22:14 08:13 7.30
518 965 MICHAEL BOLLE HOMME 344 1:22:15 08:13 7.29
519 757 ALAIN DEBEKKER HOMME 345 1:22:29 08:15 7.27